Weather History for Hyannis, MA

Change the Weather History Date:

Monday, December 9, 2013

  Actual Average Record
Temperature  
Mean Temperature 39 °F -  
Max Temperature 46 °F 44 °F 60 °F (1951)
Min Temperature 32 °F 27 °F 4 °F (1934)
Degree Days  
Heating Degree Days 26    
Moisture  
Dew Point 38 °F    
Average Humidity 92    
Maximum Humidity 100    
Minimum Humidity 66    
Precipitation  
Precipitation 0.39 in - - ()
Sea Level Pressure  
Sea Level Pressure 30.08 in    
Wind  
Wind Speed 7 mph (NE)    
Max Wind Speed 16 mph    
Max Gust Speed 24 mph    
Visibility 4 miles    
Events Rain , Snow    
Averages and records for this station are not official NWS values.
T = Trace of Precipitation, MM = Missing Value Source: NWS Daily Summary

Daily Weather History Graph

Daily Weather History Graph

Search for Another Location

Airport:

Trip Planner

Search our weather history database for the weather conditions in past years. The results will help you decide how hot, cold, wet, or windy it might be!

Date:

Astronomy

Dec. 09, 2013 Rise Set
Actual Time 6:56 AM EST 4:10 PM EST
Civil Twilight 6:25 AM EST 4:41 PM EST
Nautical Twilight 5:50 AM EST 5:16 PM EST
Astronomical Twilight 5:16 AM EST 5:50 PM EST
Moon 11:43 AM EST (12/9) No Moon Set
Length of Visible Light 10h 16m
Length of Day
9h 14m
Waxing Crescent, 51% of the Moon is Illuminated
Dec 9
Waxing Crescent
Dec 17
Full
Dec 25
Last Quarter
Jan 1
New
Jan 7
First Quarter

Hourly Weather History & Observations

Time (EST) Temp. Windchill Dew Point Humidity Pressure Visibility Wind Dir Wind Speed Gust Speed Precip Events Conditions
12:56 AM 33.1 °F 27.7 °F 23.0 °F 66% 30.45 in 9.0 mi NE 5.8 mph - 0.00 in   Overcast
1:56 AM 32.0 °F 26.4 °F 27.0 °F 82% 30.42 in 5.0 mi ENE 5.8 mph - 0.00 in Snow Light Snow
2:56 AM 33.1 °F 28.7 °F 28.9 °F 85% 30.41 in 7.0 mi NE 4.6 mph - 0.00 in   Overcast
3:52 AM 33.8 °F 29.6 °F 30.2 °F 87% 30.38 in 2.0 mi NE 4.6 mph - 0.01 in Snow Light Snow
3:56 AM 33.1 °F 27.7 °F 30.9 °F 92% 30.38 in 2.0 mi NE 5.8 mph - 0.02 in Snow Light Snow
4:17 AM 33.8 °F 28.6 °F 30.2 °F 87% 30.36 in 2.5 mi NE 5.8 mph - 0.02 in Snow Light Snow
4:26 AM 33.8 °F 28.6 °F 30.2 °F 87% 30.36 in 2.5 mi ENE 5.8 mph - 0.02 in Snow Light Snow
4:32 AM 33.8 °F 29.6 °F 30.2 °F 87% 30.36 in 1.8 mi NE 4.6 mph - 0.02 in Snow Light Snow
4:56 AM 33.1 °F 28.7 °F 32.0 °F 96% 30.35 in 1.8 mi ENE 4.6 mph - 0.04 in Snow Light Snow
5:05 AM 33.8 °F 29.6 °F 32.0 °F 93% 30.34 in 2.5 mi ENE 4.6 mph - 0.00 in Rain Light Rain
5:14 AM 33.8 °F 27.7 °F 32.0 °F 93% 30.32 in 3.0 mi East 6.9 mph - 0.00 in Snow Light Snow
5:56 AM 34.0 °F 27.2 °F 32.0 °F 92% 30.32 in 4.0 mi ENE 8.1 mph - 0.03 in Rain Light Rain
6:56 AM 35.1 °F 27.9 °F 33.1 °F 92% 30.27 in 5.0 mi East 9.2 mph - 0.03 in Rain Light Rain
7:34 AM 35.6 °F 29.9 °F 35.6 °F 100% 30.26 in 2.0 mi Variable 6.9 mph - 0.03 in Rain Light Rain
7:56 AM 37.0 °F 29.3 °F 35.1 °F 93% 30.24 in 2.0 mi East 11.5 mph 19.6 mph 0.04 in Rain Light Rain
8:14 AM 37.4 °F 30.3 °F 35.6 °F 93% 30.22 in 5.0 mi East 10.4 mph 19.6 mph 0.00 in Rain Light Rain
8:56 AM 39.0 °F 32.8 °F 36.0 °F 89% 30.18 in 5.0 mi East 9.2 mph 24.2 mph 0.01 in Rain Light Rain
9:02 AM 39.2 °F 32.0 °F 35.6 °F 87% 30.16 in 4.0 mi ESE 11.5 mph 23.0 mph 0.01 in Rain Light Rain
9:56 AM 39.9 °F 32.5 °F 37.0 °F 89% 30.12 in 4.0 mi ESE 12.7 mph 23.0 mph 0.02 in Rain Light Rain
10:56 AM 42.1 °F 36.1 °F 39.0 °F 89% 30.09 in 3.0 mi ESE 10.4 mph 20.7 mph 0.04 in Rain Rain
11:00 AM 42.8 °F 39.3 °F 39.2 °F 87% 30.09 in 2.5 mi Variable 5.8 mph 20.7 mph 0.02 in Rain Rain
11:18 AM 42.8 °F 38.6 °F 39.2 °F 87% 30.09 in 2.5 mi Variable 6.9 mph - 0.07 in Rain Light Rain
11:56 AM 43.0 °F 40.3 °F 42.1 °F 97% 30.09 in 1.2 mi Variable 4.6 mph - 0.10 in Rain Light Rain
12:16 PM 44.6 °F 40.7 °F 42.8 °F 93% 30.04 in 1.2 mi East 6.9 mph - 0.01 in Rain Light Rain
12:56 PM 44.1 °F 41.5 °F 43.0 °F 96% 30.00 in 1.2 mi East 4.6 mph - 0.03 in Rain Light Rain
1:56 PM 46.0 °F 43.1 °F 45.0 °F 96% 29.94 in 1.2 mi ESE 5.8 mph - 0.01 in   Overcast
2:56 PM 46.9 °F - 46.0 °F 97% 29.88 in 1.2 mi ESE 5.8 mph - 0.01 in   Overcast
3:56 PM 46.9 °F - 46.0 °F 97% 29.87 in 1.0 mi Calm Calm - N/A   Overcast
4:56 PM 46.9 °F - 46.0 °F 97% 29.86 in 1.0 mi NW 4.6 mph - 0.01 in   Overcast
5:03 PM 46.4 °F 42.4 °F 46.4 °F 100% 29.86 in 2.0 mi NW 8.1 mph - N/A   Overcast
5:19 PM 46.4 °F 43.5 °F 44.6 °F 93% 29.85 in 4.0 mi NW 5.8 mph - N/A   Overcast
5:35 PM 46.4 °F 44.3 °F 44.6 °F 93% 29.86 in 2.5 mi WNW 4.6 mph - N/A   Overcast
5:56 PM 45.0 °F 42.6 °F 45.0 °F 100% 29.86 in 1.8 mi West 4.6 mph - N/A   Overcast
6:20 PM 44.6 °F 42.2 °F 44.6 °F 100% 29.86 in 2.5 mi West 4.6 mph - N/A   Overcast
6:28 PM 44.6 °F 42.2 °F 44.6 °F 100% 29.86 in 3.0 mi WSW 4.6 mph - N/A   Overcast
6:37 PM 44.6 °F 43.1 °F 44.6 °F 100% 29.86 in 1.8 mi West 3.5 mph - N/A   Overcast
6:56 PM 45.0 °F 41.2 °F 44.1 °F 97% 29.87 in 0.8 mi WSW 6.9 mph - N/A   Overcast
7:07 PM 44.6 °F 41.4 °F 44.6 °F 100% 29.86 in 1.0 mi WSW 5.8 mph - N/A   Overcast
7:56 PM 45.0 °F 40.6 °F 44.1 °F 97% 29.87 in 1.0 mi West 8.1 mph - N/A   Overcast
8:06 PM 44.6 °F 37.8 °F 44.6 °F 100% 29.87 in 3.0 mi West 15.0 mph 20.7 mph N/A   Overcast
8:56 PM 44.1 °F 37.1 °F 43.0 °F 96% 29.88 in 4.0 mi WSW 15.0 mph 19.6 mph N/A   Overcast
9:56 PM 43.0 °F 35.4 °F 41.0 °F 93% 29.89 in 10.0 mi West 16.1 mph 24.2 mph N/A   Overcast
10:35 PM 42.8 °F 35.8 °F 39.2 °F 87% 29.90 in 10.0 mi West 13.8 mph 20.7 mph N/A   Overcast
10:56 PM 41.0 °F 35.2 °F 37.9 °F 89% 29.91 in 10.0 mi WNW 9.2 mph 19.6 mph N/A   Overcast
11:49 PM 39.2 °F 35.0 °F 35.6 °F 87% 29.90 in 10.0 mi West 5.8 mph - N/A   Scattered Clouds
11:56 PM 39.0 °F 35.7 °F 36.0 °F 89% 29.90 in 10.0 mi West 4.6 mph - N/A   Partly Cloudy